Regional Weather Roundup
Issued by NWS

Home | Current Version | Previous Version | Text Only | Print | Product List | Glossary On
Versions: 1 2 3 4 5 6 7 8 9 10 11 12 13 14 15 16 17 18 19 20 21 22 23 24 25 26 27 28 29 30 31 32 33 34 35 36 37 38 39 40 41 42 43 44 45 46 47 48 49 50
000
ASUS43 KTOP 242308
RWRKS

WEATHER ROUNDUP FOR KANSAS
NATIONAL WEATHER SERVICE GOODLAND KS
600 PM CDT FRI OCT 24 2014

NOTE:  "FAIR" INDICATES FEW OR NO CLOUDS BELOW 12,000 FEET WITH NO
SIGNIFICANT WEATHER AND/OR OBSTRUCTIONS TO VISIBILITY.

KSZ001>006-013>018-027>032-041>047-250000-
NORTHWEST KANSAS

CITY           SKY/WX    TMP DP  RH WIND       PRES   REMARKS
GOODLAND       CLEAR     87  23   9 CALM      30.07R
HAYS           CLEAR     84  54  34 S6        29.97S
HILL CITY      CLEAR     84  41  21 NE5       29.99R
RUSSELL        CLEAR     81  56  42 SW6       29.96S
$$

KSZ061>065-074>080-084>089-250000-
SOUTHWEST KANSAS

CITY           SKY/WX    TMP DP  RH WIND       PRES   REMARKS
DODGE CITY     PTCLDY    83  46  27 S8        30.02R
ELKHART          N/A     86  40  19 SW6         N/A
GARDEN CITY    CLEAR     84  44  24 SW5       30.02S
GREAT BEND     PTCLDY    82  54  36 S5        29.97S
LIBERAL        CLEAR     86  39  19 S8        30.04S
PRATT          PTCLDY    79  55  44 SW7       30.02R
$$

KSZ066>073-081>083-090>101-250000-
SOUTHEAST KANSAS

CITY           SKY/WX    TMP DP  RH WIND       PRES   REMARKS
CHANUTE        MOCLDY    74  63  68 S12       30.01S
COFFEYVILLE    PTCLDY    73  62  68 S8        30.01F
HUTCHINSON     CLEAR     82  59  45 S9        29.98S
MEDICINE LODGE   N/A     82  61  48 S7        29.99S
NEWTON         CLEAR     79  61  53 SW9       30.01S
PARSONS        PTCLDY    74  62  66 S7        30.03S
WICHITA INTL   PTCLDY    81  60  48 SW10      29.99R
WICHITA JABRA  CLEAR     79  60  52 SW7       29.99S
WICHITA MCCONL CLEAR     79  61  53 S12       30.00S
WINFIELD       CLEAR     79  63  57 SW10      30.01S
$$

KSZ007>012-019>026-033>040-048>060-102>105-250000-
NORTHEAST KANSAS

CITY           SKY/WX    TMP DP  RH WIND       PRES   REMARKS
CONCORDIA      CLEAR     80  58  46 W3        29.93S
EMPORIA        PTCLDY    71  60  68 SW12      29.96F
LAWRENCE       CLEAR     74  62  66 S12       29.94S
MANHATTAN      CLEAR     80  63  55 SW12      29.92R
MARYSVILLE     CLEAR     77  63  61 SW6       29.92S
OLATHE IND     CLEAR     73  62  68 S12       29.96F
OLATHE EXE     CLEAR     73  63  70 S8        29.95F
SALINA         CLEAR     81  63  54 S10       29.95S
TOPEKA BILLARD PTCLDY    78  63  59 S7        29.93S
TOPEKA FORBES  PTCLDY    76  63  64 S9        29.93F
$$



USA.gov is the U.S. government's official web portal to all federal, state and local government web resources and services.